Regional Weather Roundup
Issued by NWS Sioux Falls, SD

Home | Current Version | Previous Version | Text Only | Print | Product List | Glossary Off
Versions: 1 2 3 4 5 6 7 8 9 10 11 12 13 14 15 16 17 18 19 20 21 22 23 24 25 26 27 28 29 30 31 32 33 34 35 36 37 38 39 40 41 42 43 44 45 46 47 48 49 50

000
ASUS43 KFSD 290110
RWRFSD

WEATHER ROUNDUP FOR SE SOUTH DAKOTA/SW MINNESOTA/NW IOWA
NATIONAL WEATHER SERVICE SIOUX FALLS SD
700 PM CST WED JAN 28 2015

NOTE: "FAIR" INDICATES FEW OR NO CLOUDS BELOW 12,000 FEET WITH NO
SIGNIFICANT WEATHER AND OR OBSTRUCTIONS TO VISIBILITY.


SDZ038>040-050-052>070-290200-
SOUTHEAST SOUTH DAKOTA

CITY           SKY/WX    TMP DP  RH WIND       PRES   REMARKS
CHAMBERLAIN    CLOUDY    41  34  76 NW28      29.96R
HURON          CLOUDY    37  33  85 N35G47    29.90R
MADISON        CLOUDY    37  37 100 N14       29.80R
MITCHELL       CLOUDY    44  37  76 NW24G41   29.86R
SIOUX FALLS    CLOUDY    36  33  89 N6        29.78R
WINNER         FAIR      47  33  58 NW25G32   29.97R
YANKTON        PTCLDY    41  36  81 NW12      29.82R
$$

MNZ071-072-080-081-089-090-097-098-290200-
SOUTHWEST MINNESOTA

CITY           SKY/WX    TMP DP  RH WIND       PRES   REMARKS
FAIRMONT       CLOUDY    34  28  80 N5        29.75S WCI  30
JACKSON        CLOUDY    32  32 100 NW5       29.76S FOG     WCI  27
LUVERNE        CLOUDY    36  34  93 CALM      29.78R FOG
MARSHALL       CLOUDY    34  28  80 CALM      29.82R
MONTEVIDEO     FOG       32  32 100 CALM      29.84R VSB 3/4
PIPESTONE      CLOUDY    36  34  93 N12G18    29.77R
REDWOOD FALLS  FOG       33  32  96 CALM      29.81R VSB 3/4
TRACY          CLOUDY    34  32  94 CALM      29.79R FOG
WINDOM         CLOUDY    34  32  93 CALM      29.78R FOG
WORTHINGTON    CLOUDY    32  30  93 N5        29.77R VSB 3/4 WCI  27
$$

IAZ001>003-012>014-020>022-031-032-NEZ013-014-SDZ071-290200-
NORTHWEST IOWA

CITY           SKY/WX    TMP DP  RH WIND       PRES   REMARKS
CHEROKEE       CLEAR     34  33  99 N3        29.74R FOG
DENISON        CLEAR     39  34  81 CALM      29.70R
ESTHERVILLE    CLOUDY    32  31  96 N7        29.74F FOG     WCI  26
LE MARS        MOCLDY    36  34  93 N5        29.75R
ORANGE CITY    CLEAR     37  34  87 NE7       29.76R FOG
SHELDON        CLOUDY    34  34 100 N7        29.75R FOG     WCI  28
SIOUX CITY     CLEAR     43  36  76 NW10      29.73R
SPENCER        MOCLDY    34  31  88 N6        29.75R FOG     WCI  29
STORM LAKE     CLEAR     34  34 100 N7        29.72R FOG     WCI  28
$$

ABBREVIATIONS USED IN REMARKS
   TC - TEMPERATURE IN CELSIUS
  WCI - WIND CHILL INDEX
   HX - HEAT INDEX
  VSB - VISIBILITY




USA.gov is the U.S. government's official web portal to all federal, state and local government web resources and services.